San Martin, CA

7:30 PM PDT on June 28, 2017 (GMT -0700)
San Martin

Weather History for KE16 - February, 2014

Change the Weather History Date:

Thursday, February 6, 2014

  Actual Average (KWVI) Record (KWVI)
Temperature  
Mean Temperature 48 °F -  
Max Temperature 51 °F 61 °F 76 °F (2011)
Min Temperature 44 °F 40 °F 29 °F (2003)
Degree Days  
Heating Degree Days 18    
Moisture  
Dew Point 46 °F    
Average Humidity 93    
Maximum Humidity 100    
Minimum Humidity 82    
Precipitation  
Precipitation 0.50 in - - ()
Sea Level Pressure  
Sea Level Pressure 30.00 in    
Wind  
Wind Speed 3 mph (South)    
Max Wind Speed 14 mph    
Max Gust Speed 17 mph    
Visibility 8 miles    
Events Rain    
Averages and records for this station are not official NWS values.
T = Trace of Precipitation, MM = Missing Value Source: NWS Daily Summary

Daily Weather History Graph

Daily Weather History Graph

Search for Another Location

Airport or City:

Trip Planner

Search our weather history database for the weather conditions in past years. The results will help you decide how hot, cold, wet, or windy it might be!

Date:

Astronomy

Feb. 06, 2014 Rise Set
Actual Time 7:04 AM PST 5:36 PM PST
Civil Twilight 6:37 AM PST 6:04 PM PST
Nautical Twilight 6:06 AM PST 6:34 PM PST
Astronomical Twilight 5:36 AM PST 7:05 PM PST
Moon 11:12 AM PST (2/6) 12:25 AM PST (2/6)
Length of Visible Light 11h 26m
Length of Day
10h 32m
Waxing Crescent, 50% of the Moon is Illuminated
Feb 6
Waxing Crescent
Feb 14
Full
Feb 22
Last Quarter
Mar 1
New
Mar 8
First Quarter

Hourly Weather History & Observations

Time (PST) Temp. Windchill Dew Point Humidity Pressure Visibility Wind Dir Wind Speed Gust Speed Precip Events Conditions
12:15 AM 46.4 °F - 46.4 °F 100% 30.11 in 10.0 mi Calm Calm - N/A Rain Light Rain
12:35 AM 46.4 °F 45.2 °F 46.4 °F 100% 30.10 in 10.0 mi SSE 3.5 mph - N/A   Overcast
12:55 AM 46.4 °F 45.2 °F 46.4 °F 100% 30.09 in 8.0 mi ESE 3.5 mph - N/A Rain Light Rain
1:15 AM 46.4 °F 45.2 °F 46.4 °F 100% 30.08 in 9.0 mi SSW 3.5 mph - N/A Rain Light Rain
1:35 AM 46.4 °F 45.2 °F 46.4 °F 100% 30.08 in 9.0 mi South 3.5 mph - N/A Rain Light Rain
1:55 AM 46.4 °F - 46.4 °F 100% 30.07 in 10.0 mi Calm Calm - N/A   Overcast
2:15 AM 46.4 °F - 46.4 °F 100% 30.07 in 10.0 mi Calm Calm - N/A   Overcast
2:35 AM 46.4 °F - 46.4 °F 100% 30.07 in 10.0 mi Calm Calm - N/A Rain Light Rain
2:55 AM 46.4 °F 44.3 °F 46.4 °F 100% 30.05 in 5.0 mi ENE 4.6 mph - N/A Rain Light Rain
3:15 AM 46.4 °F - 46.4 °F 100% 30.04 in 4.0 mi Calm Calm - N/A Rain Light Rain
3:35 AM 46.4 °F - 46.4 °F 100% 30.03 in 6.0 mi Calm Calm - 0.01 in Rain Light Rain
3:55 AM 46.4 °F - 46.4 °F 100% 30.02 in 7.0 mi Calm Calm - 0.01 in Rain Light Rain
4:15 AM 46.4 °F - 46.4 °F 100% 30.02 in 7.0 mi Calm Calm - N/A Rain Light Rain
4:35 AM 46.4 °F - 46.4 °F 100% 30.02 in 3.0 mi Calm Calm - 0.02 in Rain Light Rain
4:55 AM 46.4 °F - 46.4 °F 100% 30.02 in 3.0 mi Calm Calm - 0.04 in Rain Light Rain
5:15 AM 46.4 °F - 46.4 °F 100% 30.02 in 2.5 mi Calm Calm - 0.02 in Rain Light Rain
5:35 AM 44.6 °F - 44.6 °F 100% 30.01 in 2.5 mi Calm Calm - 0.09 in Rain Rain
5:55 AM 44.6 °F 42.2 °F 44.6 °F 100% 30.00 in 5.0 mi South 4.6 mph - 0.12 in Rain Light Rain
6:15 AM 44.6 °F 43.1 °F 44.6 °F 100% 29.99 in 5.0 mi South 3.5 mph - N/A Rain Light Rain
6:35 AM 44.6 °F 43.1 °F 44.6 °F 100% 29.98 in 5.0 mi South 3.5 mph - 0.01 in Rain Light Rain
6:55 AM 46.4 °F 45.2 °F 46.4 °F 100% 29.98 in 5.0 mi SSW 3.5 mph - 0.02 in Rain Light Rain
7:15 AM 46.4 °F - 46.4 °F 100% 29.98 in 3.0 mi Calm Calm - 0.04 in Rain Rain
7:35 AM 46.4 °F 42.4 °F 46.4 °F 100% 29.97 in 3.0 mi South 8.1 mph - 0.08 in Rain Light Rain
7:55 AM 46.4 °F 42.4 °F 46.4 °F 100% 29.97 in 2.0 mi SSW 8.1 mph - 0.13 in Rain Rain
8:15 AM 46.4 °F 42.9 °F 46.4 °F 100% 29.96 in 2.0 mi SSW 6.9 mph - 0.03 in Rain Rain
8:35 AM 46.4 °F 41.9 °F 46.4 °F 100% 29.96 in 1.5 mi SSE 9.2 mph - 0.14 in Rain Rain
8:50 AM 46.4 °F 42.4 °F 46.4 °F 100% 29.94 in 2.5 mi SSE 8.1 mph - 0.18 in Rain Rain
9:15 AM 46.4 °F 40.4 °F 46.4 °F 100% 29.95 in 7.0 mi SSE 13.8 mph - N/A Rain Light Rain
9:35 AM 48.2 °F - 44.6 °F 87% 29.96 in 10.0 mi SSE 6.9 mph - N/A   Overcast
9:55 AM 48.2 °F - 46.4 °F 93% 29.96 in 10.0 mi South 5.8 mph - N/A   Overcast
10:15 AM 48.2 °F - 44.6 °F 87% 29.97 in 10.0 mi SSE 4.6 mph - N/A   Overcast
10:35 AM 50.0 °F - 46.4 °F 87% 29.97 in 10.0 mi South 6.9 mph - N/A   Overcast
10:55 AM 48.2 °F - 48.2 °F 100% 29.97 in 7.0 mi SSW 5.8 mph - N/A   Overcast
11:15 AM 48.2 °F - 48.2 °F 100% 29.97 in 9.0 mi SW 5.8 mph - N/A   Overcast
11:35 AM 50.0 °F - 46.4 °F 87% 29.95 in 5.0 mi ENE 5.8 mph - N/A   Overcast
11:55 AM 50.0 °F - 44.6 °F 82% 29.93 in 10.0 mi ENE 8.1 mph - N/A   Overcast
12:15 PM 50.0 °F - 44.6 °F 82% 29.92 in 10.0 mi East 11.5 mph 17.3 mph N/A   Overcast
12:35 PM 50.0 °F - 44.6 °F 82% 29.93 in 10.0 mi East 6.9 mph 16.1 mph N/A   Overcast
12:55 PM 50.0 °F - 44.6 °F 82% 29.93 in 10.0 mi East 8.1 mph - N/A   Overcast
1:15 PM 50.0 °F - 46.4 °F 87% 29.93 in 4.0 mi NNE 4.6 mph - N/A   Haze
1:35 PM 50.0 °F - 46.4 °F 87% 29.93 in 5.0 mi Calm Calm - N/A   Overcast
1:55 PM 50.0 °F - 46.4 °F 87% 29.92 in 10.0 mi WSW 4.6 mph - N/A   Overcast
2:15 PM 51.8 °F - 46.4 °F 82% 29.93 in 10.0 mi West 3.5 mph - N/A   Overcast
2:35 PM 51.8 °F - 46.4 °F 82% 29.94 in 10.0 mi West 5.8 mph - N/A   Overcast
2:55 PM 51.8 °F - 46.4 °F 82% 29.94 in 10.0 mi West 3.5 mph - N/A   Overcast
3:15 PM 51.8 °F - 46.4 °F 82% 29.95 in 9.0 mi SSW 6.9 mph - N/A   Overcast
3:35 PM 50.0 °F - 46.4 °F 87% 29.96 in 10.0 mi SSW 3.5 mph - N/A   Overcast
3:55 PM 51.8 °F - 46.4 °F 82% 29.95 in 10.0 mi South 4.6 mph - N/A   Overcast
4:15 PM 50.0 °F - 46.4 °F 87% 29.96 in 10.0 mi South 4.6 mph - N/A   Overcast
4:35 PM 50.0 °F - 46.4 °F 87% 29.95 in 10.0 mi South 4.6 mph - N/A   Overcast
4:55 PM 50.0 °F - 48.2 °F 94% 29.95 in 10.0 mi SSW 5.8 mph - N/A   Overcast
5:15 PM 50.0 °F - 46.4 °F 87% 29.96 in 10.0 mi SSW 5.8 mph - N/A   Overcast
5:35 PM 50.0 °F - 46.4 °F 87% 29.97 in 10.0 mi SW 4.6 mph - N/A   Overcast
5:55 PM 50.0 °F - 46.4 °F 87% 29.98 in 10.0 mi SSW 3.5 mph - N/A   Overcast
6:15 PM 50.0 °F - 46.4 °F 87% 29.98 in 10.0 mi South 3.5 mph - N/A   Overcast
6:35 PM 50.0 °F - 46.4 °F 87% 29.99 in 10.0 mi SSE 3.5 mph - N/A   Overcast
6:55 PM 50.0 °F - 46.4 °F 87% 30.00 in 10.0 mi SSE 3.5 mph - N/A   Overcast
7:15 PM 50.0 °F - 48.2 °F 94% 30.00 in 10.0 mi SE 3.5 mph - N/A   Overcast
7:35 PM 50.0 °F - 46.4 °F 87% 30.01 in 10.0 mi Calm Calm - N/A   Overcast
7:55 PM 50.0 °F - 48.2 °F 94% 30.02 in 10.0 mi Calm Calm - N/A   Overcast
8:15 PM 50.0 °F - 48.2 °F 94% 30.03 in 10.0 mi Calm Calm - N/A   Overcast
8:35 PM 50.0 °F - 46.4 °F 87% 30.05 in 10.0 mi Calm Calm - N/A   Overcast
8:55 PM 50.0 °F - 48.2 °F 94% 30.05 in 10.0 mi SE 3.5 mph - N/A   Overcast
9:15 PM 50.0 °F - 46.4 °F 87% 30.04 in 10.0 mi SSE 4.6 mph - N/A   Overcast
9:35 PM 48.2 °F - 46.4 °F 93% 30.04 in 10.0 mi SSE 5.8 mph - N/A   Overcast
9:55 PM 48.2 °F - 46.4 °F 93% 30.05 in 10.0 mi SSE 5.8 mph - N/A   Overcast
10:15 PM 48.2 °F - 46.4 °F 93% 30.05 in 10.0 mi South 4.6 mph - N/A   Mostly Cloudy
10:35 PM 48.2 °F - 46.4 °F 93% 30.05 in 10.0 mi South 4.6 mph - N/A   Overcast
10:55 PM 48.2 °F - 46.4 °F 93% 30.06 in 10.0 mi SSW 5.8 mph - N/A   Mostly Cloudy
11:15 PM 48.2 °F - 46.4 °F 93% 30.05 in 10.0 mi SE 3.5 mph - N/A   Overcast
11:35 PM 46.4 °F - 46.4 °F 100% 30.05 in 10.0 mi Calm Calm - N/A   Overcast
11:55 PM 46.4 °F 45.2 °F 46.4 °F 100% 30.05 in 10.0 mi South 3.5 mph - N/A   Overcast